Tracking 25703 objects as of 2-Jul-2022
HD Live streaming from Space Station
objects crossing your sky now

NOAA 1 DEB *

Track NOAA 1 DEB * now!
10-day predictions


NORAD ID: 8828
Int'l Code: 1970-106C
Perigee: 1,497.5 km
Apogee: 1,537.0 km
Inclination: 102.1 °
Period: 116.2 minutes
Semi major axis: 7888 km
RCS: 0.0417 m2 (small)
Launch date: December 11, 1970
Source: United States (US)
Launch site: AIR FORCE WESTERN TEST RANGE (AFWTR)

Note: This is SATELLITE DEBRIS
aabbcc
Your satellite tracking list
Your tracking list is empty




NASA's NSSDC Master Catalog

Two Line Element Set (TLE):
1 08828U 70106C   22182.82428635  .00000075  00000-0  90862-3 0  9993
2 08828 102.0694 144.6049 0025037 280.8205 107.6642 12.39164943332141
Source of the keplerian elements: AFSPC